TimeCDT,TemperatureF,Dew PointF,Humidity,Sea Level PressureIn,VisibilityMPH,Wind Direction,Wind SpeedMPH,Gust SpeedMPH,PrecipitationIn,Events,Conditions,WindDirDegrees,DateUTC
12:53 AM,46.0,44.1,93,30.03,7.0,Calm,Calm,-,N/A,,Scattered Clouds,0,2013-06-30 05:53:00
1:53 AM,44.1,42.1,93,30.04,3.0,Calm,Calm,-,N/A,,Clear,0,2013-06-30 06:53:00
2:01 AM,44.6,42.8,93,30.03,2.0,Calm,Calm,-,N/A,,Clear,0,2013-06-30 07:01:00
2:13 AM,44.6,42.8,93,30.03,6.0,Calm,Calm,-,N/A,,Clear,0,2013-06-30 07:13:00
2:53 AM,43.0,41.0,93,30.04,5.0,Calm,Calm,-,N/A,,Clear,0,2013-06-30 07:53:00
3:53 AM,42.1,39.9,92,30.06,9.0,Calm,Calm,-,N/A,,Clear,0,2013-06-30 08:53:00
4:53 AM,41.0,39.0,93,30.07,2.0,Calm,Calm,-,N/A,,Clear,0,2013-06-30 09:53:00
5:10 AM,41.0,39.2,93,30.06,6.0,Calm,Calm,-,N/A,,Clear,0,2013-06-30 10:10:00
5:53 AM,41.0,39.9,96,30.09,10.0,Calm,Calm,-,N/A,,Clear,0,2013-06-30 10:53:00
6:53 AM,48.9,48.0,97,30.09,10.0,Calm,Calm,-,N/A,,Clear,0,2013-06-30 11:53:00
7:53 AM,55.9,51.1,84,30.09,10.0,Calm,Calm,-,N/A,,Clear,0,2013-06-30 12:53:00
8:53 AM,64.9,55.0,70,30.09,10.0,Calm,Calm,-,N/A,,Clear,0,2013-06-30 13:53:00
9:53 AM,71.1,53.1,53,30.10,9.0,Calm,Calm,-,N/A,,Clear,0,2013-06-30 14:53:00
10:53 AM,75.0,53.1,46,30.09,9.0,NE,8.1,-,N/A,,Clear,40,2013-06-30 15:53:00
11:53 AM,78.1,46.0,32,30.09,10.0,Variable,5.8,-,N/A,,Clear,0,2013-06-30 16:53:00
12:53 PM,79.0,45.0,30,30.09,10.0,NE,5.8,-,N/A,,Clear,40,2013-06-30 17:53:00
1:53 PM,79.0,46.9,32,30.09,10.0,East,9.2,-,N/A,,Clear,80,2013-06-30 18:53:00
2:53 PM,81.0,46.0,29,30.09,10.0,NE,9.2,-,N/A,,Clear,50,2013-06-30 19:53:00
3:53 PM,79.0,45.0,30,30.09,10.0,NE,8.1,-,N/A,,Scattered Clouds,40,2013-06-30 20:53:00
4:53 PM,80.1,46.9,31,30.10,10.0,ENE,6.9,-,N/A,,Scattered Clouds,70,2013-06-30 21:53:00
5:53 PM,80.1,46.9,31,30.10,10.0,Variable,5.8,-,N/A,,Partly Cloudy,0,2013-06-30 22:53:00
6:53 PM,79.0,46.9,32,30.10,10.0,Variable,4.6,-,N/A,,Clear,0,2013-06-30 23:53:00
7:53 PM,73.9,50.0,43,30.09,10.0,Calm,Calm,-,N/A,,Clear,0,2013-07-01 00:53:00
8:53 PM,64.0,55.0,73,30.10,10.0,Calm,Calm,-,N/A,,Clear,0,2013-07-01 01:53:00
9:53 PM,57.9,54.0,87,30.12,10.0,Calm,Calm,-,N/A,,Clear,0,2013-07-01 02:53:00
10:53 PM,54.0,52.0,93,30.14,10.0,Calm,Calm,-,N/A,,Clear,0,2013-07-01 03:53:00
11:53 PM,52.0,50.0,93,30.14,10.0,Calm,Calm,-,N/A,,Clear,0,2013-07-01 04:53:00